Find Starlink 35481

NORAD ID: 66247 Int'l Des: 2025-245 Owner: SPXS Country: US Constellation: starlink operational
LEOCIRCULAR

現在のビュー

3D地球を読み込み中...

About Starlink 35481

Starlink 35481 (NORAD 66247) is a starlink constellation satellite (v2 mini) launched Oct 29, 2025 by SPXS of US. It operates in LEO, CIRCULAR orbit with a mass of 575.00 kg.

Starlink 35481について

説明を読み込み中...

次回通過

Passes for default location (London). Set your location on the main map for personalized predictions.

高度履歴

Loading altitude history...

軌道要素

1 66247U 25245P 26162.37437676 .00007803 00000-0 26296-3 0 9999
2 66247 53.1588 208.4849 0001286 88.4332 271.6817 15.31700180 35609
Epoch: Jun 11, 2026 • Age: 10 hours

現在のステータス

高度 480.2 km
速度 7.63 km/s
衛星直下点 -29.48°S, 138.67°W
打ち上げ日 Oct 29, 2025
運用期間 0.6 years
タイプ internet

技術仕様

分類 Payload
質量 575.00 kg
乾燥質量 530.00 kg
総質量 575.00 kg
長さ 0.30 m
直径 4.10 m
スパン 29.00 m
形状 Box + pan
製造者 SPXS
バスタイプ Starlink V2MO
フェーズステータス In Orbit
所有者/国 SPXS/US

Most Searched